Regional Weather Roundup
Issued by NWS Nashville, TN

Home | Current Version | Previous Version | Text Only | Print | Product List | Glossary On
Versions: 1 2 3 4 5 6 7 8 9 10 11 12 13 14 15 16 17 18 19 20 21 22 23 24 25 26 27 28 29 30 31 32 33 34 35 36 37 38 39 40 41 42 43 44 45 46 47 48 49 50
000
ASUS44 KOHX 181110
RWROHX
MIDDLE TENNESSEE HOURLY WEATHER ROUNDUP
NATIONAL WEATHER SERVICE NASHVILLE TN
600 AM CDT WED OCT 18 2017

NOTE: "FAIR" INDICATES FEW OR NO CLOUDS BELOW 12,000 FEET WITH
NO SIGNIFICANT WEATHER AND/OR OBSTRUCTIONS TO VISIBILITY.

* THESE REPORTS ARE NOT UNDER NWS QUALITY CONTROL AND MAY NOT
  REPORT WEATHER SUCH AS PRECIPITATION AND FOG.


TNZ005>011-023>034-057-059-062>066-078-080-181200
...NORTHERN MIDDLE TENNESSEE...

CITY           SKY/WX    TMP DP  RH WIND       PRES   REMARKS
CLARKSVILLE    CLEAR     42  40  92 CALM      30.28R FOG
CROSSVILLE     FOG       39  38  96 CALM      30.32R VSB<1/4
GALLATIN       CLEAR     39  37  93 CALM      30.33R
DICKSON          N/A     48  42  80 CALM      30.27R
NASHVILLE      CLEAR     42  40  92 S3        30.30R
PORTLAND       CLEAR     43  43 100 S6        30.28R FOG
SMYRNA         CLEAR     39  39 100 CALM      30.32R
SPARTA         FOG       36  36 100 CALM      30.30R VSB 3/4
SPRINGFIELD    CLEAR     41  41 100 SE6       30.27R
WEST NASHVILLE CLEAR     41  41 100 CALM      30.28R
$$
TNZ056-058-060-061-075>077-079-093>097-181200
...SOUTHERN MIDDLE TENNESSEE...

CITY           SKY/WX    TMP DP  RH WIND       PRES   REMARKS
COLUMBIA       FOG       39  39 100 CALM      30.28R VSB 1/2
FAYETTEVILLE   CLEAR     45  43  93 N3        30.28R
MURFREESBORO   CLEAR     42  40  93 CALM      30.30R
PULASKI        FOG       39  39 100 CALM      30.29S VSB 1/4
SHELBYVILLE      N/A     43  41  93 E3        30.29S FOG
TULLAHOMA        N/A     37  36  93 CALM      30.30R
WINCHESTER     CLEAR     45  43  93 CALM        N/A
$$


...KEY TO REMARKS...
VSB - VISIBILITY IN MILES
WCI - WIND CHILL INDEX
HX  - HEAT INDEX




USA.gov is the U.S. government's official web portal to all federal, state and local government web resources and services.